Flag for South Korea Weather past 2 weeks in Daegu, South Korea

Now
79 °F

Passing clouds.


Feels Like: 80 °F
Forecast: 55 / 80 °F
Wind: 8 mph from South

Location: Taegu Ab

Current Time: Sep 21, 2014 at 1:04:12 PM

Latest Report: Sep 21, 2014 at 12:00 PM


Visibility: N/A

Pressure: 30.04 "Hg

Humidity: 48%

Dew point: 57 °F

Location of DaeguLocation

Historic Weather in Daegu — Graph

°F

Daegu temperature yesterday

Maximum temperature yesterday: 82 °F (at 3:00 PM)
Minimum temperature yesterday: 54 °F (at 6:00 AM)
Average temperature yesterday: 68 °F

Past Weeks' High & Low Weather Summary

 TemperatureHumidityPressure
High91 °F (Sep 8, 3:00 PM)94% (Sep 7, 1:00 AM)30.07 "Hg (Sep 7, 1:00 AM)
Low54 °F (Sep 20, 6:00 AM)30% (Sep 20, 5:00 PM)29.62 "Hg (Sep 8, 4:00 PM)
Average72 °F70%29.90 "Hg
* Reported Sep 6 11:00 AM — Sep 21 11:00 AM, Daegu, Weather by CustomWeather, © 2014

Note: Actual official high and low records may vary slightly from our data, if they occured in-between our weather recording intervals... More about our weather records

Advertising

Daegu weather history for previous 24 hours

 ConditionsComfort  
Time TempWeatherWind HumidityBarometerVisibility
11:00 AM
Sep 21
75 °FPassing clouds.3 mph54%30.04 "HgN/A
10:00 AM70 °FPassing clouds.2 mph64%30.07 "HgN/A
9:00 AM64 °FSunny.1 mph78%30.07 "Hg10 mi
8:00 AM59 °FSunny.3 mph94%30.07 "Hg10 mi
7:00 AM55 °FSunny.1 mph94%30.04 "Hg10 mi
6:00 AM55 °FClear.1 mph94%30.04 "Hg10 mi
5:00 AM55 °FFog.1 mph94%30.04 "Hg5 mi
4:00 AM55 °FFog.1 mph94%30.03 "Hg6 mi
3:00 AM57 °FClear.2 mph88%30.02 "HgN/A
2:00 AM59 °FClear.1 mph88%30.02 "HgN/A
10:00 PM
Sep 20
68 °FClear.2 mph64%30.01 "Hg10 mi
9:00 PM68 °FClear.2 mph64%30.01 "Hg10 mi
8:00 PM70 °FClear.9 mph60%29.98 "Hg10 mi
7:00 PM72 °FClear.7 mph50%29.95 "Hg10 mi
6:00 PM75 °FSunny.12 mph34%29.92 "Hg10 mi
5:00 PM79 °FSunny.10 mph30%29.89 "Hg10 mi
4:00 PM82 °FSunny.14 mph32%29.86 "Hg10 mi
3:00 PM82 °FSunny.7 mph35%29.86 "Hg10 mi
2:00 PM79 °FSunny.10 mph37%29.89 "Hg10 mi
1:00 PM81 °FPassing clouds.7 mph42%29.92 "HgN/A
Weather by CustomWeather, © 2014

See weather overviewHow to use our weather pages